Flight Track Log - Related Links

Times and Time Zones

All times are in EDT time to prevent confusion due to time zone crossing. See the AWI3998 flight status page for this flight to view local times or setup timezone preferences in your user account.

Time Position Orientation Groundspeed Altitude Reporting Facility
EDT Latitude Longitude Course Direction KTS MPH feet Rate Location/Type
Mon 10:16:45 AM 39.8667 -75.2833 308° West 164 189 800  Level Philadelphia TRACON
Mon 10:18:15 AM 39.8333 -75.3833 247° West 275 316 3,600 2,375 Climbing Philadelphia TRACON
Mon 10:19:00 AM 40.1237 -75.4736 323° Northwest  Level FlightAware Approximate
Mon 10:19:09 AM 39.8167 -75.4833 258° West 284 327 6,500  Level Philadelphia TRACON
Mon 10:20:00 AM 40.2137 -75.5500 North  Level FlightAware Approximate
Mon 10:20:15 AM 39.9000 -75.5167 343° North 277 319 9,600  Level Philadelphia TRACON
Mon 10:21:00 AM 40.2869 -75.6553 311° West  Level FlightAware Approximate
Mon 10:21:15 AM 39.9758 -75.5275 354° North 292 336 11,900  Level New York Center
Mon 10:22:00 AM 40.3565 -75.7664 308° West  Level FlightAware Approximate
Mon 10:22:16 AM 40.0525 -75.5383 354° North 303 349 13,100  Level New York Center
Mon 10:23:13 AM 40.1333 -75.5519 353° North 316 364 13,100 -101 Level New York Center
Mon 10:24:15 AM 40.2081 -75.5597 355° North 310 357 12,900 344 Descending New York Center
Mon 10:25:15 AM 40.2775 -75.6436 317° Northwest 304 350 13,800 1,000 Climbing New York Center
Mon 10:26:15 AM 40.3422 -75.7406 311° West 333 383 14,900 550 Climbing New York Center
Mon 10:27:15 AM 40.4050 -75.8378 310° West 351 404 14,900  Level New York Center
Mon 10:28:14 AM 40.4617 -75.9211 312° West 351 404 14,900  Level New York Center
Mon 10:29:16 AM 40.5322 -76.0247 312° West 346 398 14,900  Level New York Center
Mon 10:30:15 AM 40.5847 -76.1081 310° West 339 390 14,900  Level New York Center
Mon 10:31:14 AM 40.6508 -76.2117 310° West 339 390 14,900  Level New York Center
Mon 10:32:14 AM 40.7367 -76.2458 343° North 328 377 14,900 50 Level New York Center
Mon 10:33:15 AM 40.8331 -76.2400 North 320 368 15,000  Climbing New York Center
Mon 10:34:15 AM 40.9186 -76.2331 North 340 391 14,900 -51 Descending New York Center
Mon 10:35:13 AM 41.0233 -76.2222 North 346 398 14,900  Level New York Center
Mon 10:36:14 AM 41.1175 -76.2158 North 346 398 14,900  Level New York Center
Mon 10:37:15 AM 41.2031 -76.2119 North 346 398 14,900 101 Level New York Center
Mon 10:38:13 AM 41.2992 -76.2031 North 346 398 15,100 99 Climbing New York Center
Mon 10:39:16 AM 41.4058 -76.1950 North 352 405 15,100  Level New York Center
Mon 10:40:13 AM 41.5000 -76.1861 North 347 399 15,100  Level New York Center
Mon 10:41:14 AM 41.5939 -76.1797 North 347 399 15,100  Level New York Center
Mon 10:42:15 AM 41.6797 -76.1756 North 347 399 15,100  Level New York Center
Mon 10:43:13 AM 41.7756 -76.1694 North 347 399 15,100 -50 Level New York Center
Mon 10:44:14 AM 41.8803 -76.1611 North 347 399 15,000 -942 Descending New York Center
Mon 10:45:14 AM 41.9783 -76.1553 North 353 406 13,200 -934 Descending New York Center
Mon 10:46:16 AM 42.0683 -76.1458 North 359 413 13,100 -605 Descending New York Center
Mon 10:47:13 AM 42.1664 -76.1369 North 359 413 12,000 -797 Descending New York Center
Mon 10:48:54 AM 42.3061 -76.1197 North 299 344 11,000 -370 Descending Boston Center
Mon 10:49:55 AM 42.4042 -76.1097 North 296 341 11,000  Level Boston Center
Mon 10:50:57 AM 42.4850 -76.0997 North 293 337 11,000  Level Boston Center
Mon 10:51:58 AM 42.5661 -76.0903 North 293 337 11,000 -541 Level Boston Center
Mon 10:52:59 AM 42.6503 -76.0800 North 293 337 9,900 -934 Descending Boston Center
Mon 10:54:00 AM 42.7253 -76.0917 353° North 273 314 9,100 -435 Descending Boston Center
Mon 10:55:03 AM 42.8014 -76.1117 349° North 282 325 9,000 -347 Descending Boston Center
Mon 10:56:01 AM 42.8858 -76.1419 345° North 282 325 8,400 -1,210 Descending Boston Center
Mon 10:57:02 AM 42.9544 -76.1783 339° North 264 304 6,600 -1,785 Descending Boston Center
Mon 10:58:02 AM 43.0133 -76.2347 325° Northwest 255 293 4,800 -1,417 Descending Boston Center
Mon 10:59:09 AM 43.0769 -76.2753 335° Northwest 233 268 3,600 -1,266 Descending Boston Center
Mon 11:00:10 AM 43.1031 -76.2106 61° Northeast 183 211 2,100 -1,317 Descending Boston Center
Mon 11:01:12 AM 43.1078 -76.1553 83° East 173 199 900 -823 Descending Boston Center
Mon 11:02:14 AM 43.1083 -76.1072 89° East 159 183 400 -484 Descending Boston Center

Login

Don't have an account? Register now (free) for customized features, flight alerts, and more!